ADVERTISEMENT

iOS app on App Store Android app on Google Play

2015 \ Del Mar Mud Run - September 26, 2015

Notes Pages Download Filter By
  1 2 3 4 5 6 7 8 9 10 11 12 [13] 14 15 16 17 18 19 20 21 22 23 24 25 26 27 28 29 30 31 32 33 34 35 36 37 38 39 40 41




Keyword Exact  
Division

Bib Division Last Name First Name Division Place Total Time Pace City State Country
6072 8AM Females Martin Noelle 111 00:41:35 00:13:25 San Diego CA
6001 8AM Males Williams Sean 119 00:41:36 00:13:25 San Diego CA
3577 10AM Males Gabriel Cj 164 00:41:38 00:13:26 Ramona CA
4073 1PM Males Oniwor Joseph 31 00:41:39 00:13:26 North Hollywood CA
2769 10AM Females Solorzano Patricia 172 00:41:40 00:13:26 San Diego CA
4750 10AM Females Andriyanova Anastasia 173 00:41:40 00:13:26 San Diego CA
2772 10AM Males Lopez Luis 165 00:41:41 00:13:26 San Diego CA
4745 10AM Males Hollis Randal 166 00:41:41 00:13:27 San Diego CA
6026 10AM Males Ong Gj 167 00:41:41 00:13:27 San Diego CA
2993 8AM Females Suyeyasu Sherrie 112 00:41:41 00:13:27 San Diego CA
3574 10AM Males Valade Jc 168 00:41:41 00:13:27 Ramona CA
3576 10AM Males Roe Bryce 169 00:41:42 00:13:27 Ramona CA
1622 11AM Females Vithaya Christina 86 00:41:42 00:13:27 Ashburn VA
4743 10AM Females Mendes Stacy 174 00:41:42 00:13:27 San Diego CA
4060 10AM Females Nelson Elizabeth 175 00:41:42 00:13:27 Murrieta CA
3838 9AM Females Guerrero Zennia 138 00:41:42 00:13:27 San Ysidro CA
2771 10AM Males Simmons Patrick 170 00:41:42 00:13:27 Spring Valley CA
3837 9AM Females Guerrero Mayra 139 00:41:42 00:13:27 San Ysidro CA
3580 10AM Females Carey Natalie Rose 176 00:41:42 00:13:27 Ramona CA
5590 10AM Females Kotter Mimi 177 00:41:43 00:13:27 Carlsbad CA
2770 10AM Females Simmons Eri 178 00:41:43 00:13:27 Spring Valley CA
5535 8AM Females Casandra Jaramillo 113 00:41:43 00:13:27 Huntington Park CA
2628 12PM Females Morales Laura 64 00:41:43 00:13:27 Calexico CA
2635 12PM Males Macias Ferny 75 00:41:44 00:13:28 Calexico CA
5148 8AM Males Martinez Jesse 120 00:41:44 00:13:28 Chula Vista CA
4809 11AM Females Gardy Melissa 87 00:41:45 00:13:28 Murrieta CA
3625 8AM Females Hauser Katie 114 00:41:45 00:13:28 San Diego CA
2964 9AM Females Quas Jodi 140 00:41:45 00:13:28 Corona Del Mar CA
4810 11AM Males Gardy Ryan 94 00:41:45 00:13:28 Murrieta CA
2963 9AM Females Rovegno Heather 141 00:41:46 00:13:28 Redondo Beach CA
4985 11AM Males Whitey Mikey 95 00:41:46 00:13:28 San Diego CA
4433 12PM Females Dyer Deann 65 00:41:46 00:13:28 San Diego CA
3349 11AM Females Iantosca Sarah 88 00:41:46 00:13:28 San Diego CA
2962 9AM Females Rovegno Dillan 142 00:41:47 00:13:28 Redondo Beach CA
4742 10AM Males Russell Jarrod 171 00:41:47 00:13:29 San Diego CA
5271 9AM Females Gronski Cadence 143 00:41:47 00:13:29 Corona Del Mar CA
2651 9AM Females Pense Michelle 144 00:41:48 00:13:29 La Jolla CA
4685 9AM Females Bracken Johanna 145 00:41:48 00:13:29 Long Beach CA
6070 8AM Females Lancia Katrina 115 00:41:49 00:13:29 San Diego CA
5039 11AM Males Shumway Robert 96 00:41:49 00:13:29 La Jolla CA
2169 10AM Females Rendon Lorena 179 00:41:50 00:13:30 San Diego CA
4610 9AM Males Nelson Brad 109 00:41:50 00:13:30 San Marcos CA
2937 9AM Females Williams Heather 146 00:41:51 00:13:30 Spring Valley CA
2938 9AM Males Jones Aaron 110 00:41:51 00:13:30 Spring Valley CA
5765 10AM Males Suggs Rodney 172 00:41:53 00:13:30 San Diego CA
5435 8AM Males Arellano Antonio 121 00:41:53 00:13:31 Santa Fe Springs CA
4657 8AM Males Ortiz Richie 122 00:41:55 00:13:31 Whittier CA
3926 12PM Females Le Floch Nathalie 66 00:41:56 00:13:31 San Diego CA
3924 12PM Males Staudinger Mike 76 00:41:57 00:13:32 San Diego CA
4611 9AM Females Daniels Patricia 147 00:41:57 00:13:32 San Marcos CA
3573 10AM Females Warnock Skylar 180 00:41:57 00:13:32 Ramona CA
2170 10AM Females King Danielle 181 00:41:57 00:13:32 La Mesa CA
4498 10AM Females Lisak Laura 182 00:41:58 00:13:32 San Marcos CA
4062 10AM Females Largent Sandra 183 00:41:58 00:13:32 Riverside CA
5568 9AM Males Le Shawn 111 00:41:59 00:13:32 Encinitas CA
4857 8AM Males Lambert Jim 123 00:41:59 00:13:33 San Diego CA
6053 10AM Males Gombold Nick 173 00:41:59 00:13:33 El Cajon CA
4310 10AM Females Munoz Irma 184 00:42:00 00:13:33 San Diego CA
6008 9AM Females Nussbaum Chloe 148 00:42:00 00:13:33 San Diego CA
6051 10AM Females Copado Adriana 185 00:42:00 00:13:33 San Diego CA
1574 11AM Females Jedlicka Danyelle 89 00:42:01 00:13:33 Cedar City UT
3923 12PM Females Staudinger Madeline 67 00:42:01 00:13:33 San Diego CA
5574 10AM Females Celis Miriam 186 00:42:01 00:13:33 San Diego CA
3925 12PM Males Staudinger Nicholas 77 00:42:01 00:13:33 San Diego CA
6090 10AM Males Unknown 174 00:42:01 00:13:33
3686 8AM Males Hernandez Jesus 124 00:42:02 00:13:33 Chula Vidta CA
5611 10AM Females Gonzalez Rosa Maria 187 00:42:02 00:13:34 San Diego CA
1430 10AM Females Brown Jasmine 188 00:42:03 00:13:34 San Diego CA
3687 8AM Females Baughman Bailee 116 00:42:03 00:13:34 Chula Vista CA
3579 10AM Females Elliott Sydney 189 00:42:03 00:13:34 Ramona CA
1820 8AM Females De Roldan Sandra 117 00:42:03 00:13:34 San Diego CA
4499 10AM Females Koehler Terra 190 00:42:04 00:13:34 Carlsbad CA
6010 9AM Males Unknown 112 00:42:04 00:13:34
3241 10AM Females Carbajal Gabriela 191 00:42:06 00:13:35 Murrieta CA
3243 10AM Females Baum Brosche Wendy 192 00:42:06 00:13:35 Temecula CA
4856 8AM Females Lambert Heidi 118 00:42:07 00:13:35 San Diego CA
6007 9AM Females Woods Anabelle 149 00:42:07 00:13:35 Solana Beach CA
5752 10AM Females Hall Diana 193 00:42:08 00:13:35 Murriet CA
5601 9AM Females Woods Whitney 150 00:42:08 00:13:35 Solana Beach CA
5678 12PM Males Holland Jacob 78 00:42:09 00:13:36 San Diego CA
3013 12PM Females Lopez Samantha 68 00:42:09 00:13:36 San Diego CA
1153 1PM Females Vinson Jodi 49 00:42:10 00:13:36 San Diego CA
1429 10AM Females Castro Lorena 194 00:42:11 00:13:36 San Diego CA
5277 12PM Males Gomez Diaz Julio Cesar 79 00:42:11 00:13:36 San Diego CA
3833 8AM Females Peschel Neile 119 00:42:12 00:13:37 Carlsbad CA
3832 8AM Males Simon Sean 125 00:42:12 00:13:37 Solana Beach CA
1154 1PM Males San Miguel Antonio 32 00:42:13 00:13:37 San Diego CA
4170 11AM Males Moon Dan 97 00:42:16 00:13:38 Escondido CA
4169 11AM Females Munoz Jessica 90 00:42:17 00:13:38 Escondido CA
2232 10AM Females Mitchell Karla 195 00:42:17 00:13:38 Carlsbad CA
1119 10AM Males Drum Ricky 175 00:42:18 00:13:38 Vista CA
3310 10AM Females Roth Joelle 196 00:42:18 00:13:38 Carlsbad CA
3308 10AM Females Stephens Olivia 197 00:42:18 00:13:38 Carlsbad CA
2027 10AM Females Phelps Amelia 198 00:42:19 00:13:39 Oceanside CA
2028 10AM Males Ferreira Erik 176 00:42:19 00:13:39 Oceanside CA
6034 11AM Females Shumway Heather 91 00:42:20 00:13:39 San Diego CA
3309 10AM Females Silcox Rian 199 00:42:21 00:13:39 Carlsbad CA
3311 10AM Females Roth Lori 200 00:42:21 00:13:40 Carlsbad CA
4944 1PM Females Towne Kristie 50 00:42:21 00:13:40 Escondido CA
3312 10AM Females Barnhill Emily 201 00:42:21 00:13:40 Carlsbad CA